Regional Weather Roundup
Issued by NWS

Home | Current Version | Previous Version | Text Only | Print | Product List | Glossary On
Versions: 1 2 3 4 5 6 7 8 9 10 11 12 13 14 15 16 17 18 19 20 21 22 23 24 25 26 27 28 29 30 31 32 33 34 35 36 37 38 39 40 41 42 43 44 45 46 47 48 49 50
000
ASUS45 KPSR 261410
RWRAZ

ARIZONA HOURLY REGIONAL WEATHER ROUNDUP
NATIONAL WEATHER SERVICE PHOENIX AZ
700 AM MST TUE MAY 26 2015

NOTE: FAIR INDICATES FEW OR NO CLOUDS BELOW 12,000 FEET WITH NO
SIGNIFICANT WEATHER AND/OR OBSTRUCTIONS TO VISIBILITY.

AZZ001>003-036-261500-
NORTHWEST ARIZONA

CITY           SKY/WX    TMP DP  RH WIND       PRES   REMARKS
BULLHEAD CITY  SUNNY     73  37  27 SW3       29.90R
KINGMAN        SUNNY     66  35  31 SE6       30.01S
$$

AZZ004>008-015-016-018-261500-
NORTH CENTRAL ARIZONA

CITY           SKY/WX    TMP DP  RH WIND       PRES   REMARKS
GRAND CANYON   SUNNY     48  41  76 CALM      30.17R
WILLIAMS       SUNNY     48  37  66 S8        30.24S
PRESCOTT       MOSUNNY   57  35  43 CALM      30.11R
FLAGSTAFF      SUNNY     47  42  83 SW3       30.20R
PAYSON         MOSUNNY   55  41  58 CALM      30.13S
PAGE           MOSUNNY   63  44  50 CALM      30.05R
$$

AZZ009>014-017-261500-
NORTHEAST ARIZONA

CITY           SKY/WX    TMP DP  RH WIND       PRES   REMARKS
WINSLOW        PTSUNNY   53  44  71 E7        30.11R
SAINT JOHNS    SUNNY     54  39  57 CALM      30.15R
WINDOW ROCK    SUNNY     44  39  82 CALM      30.19R
SHOW LOW       CLOUDY    52  39  62 S6        30.19S
$$

AZZ023-261500-
GREATER PHOENIX AREA

CITY           SKY/WX    TMP DP  RH WIND       PRES   REMARKS
PHOENIX        MOSUNNY   75  43  31 SE5       29.93R
BUCKEYE        MOSUNNY   72  37  28 NW5       29.94S
GLENDALE       MOSUNNY   73  43  33 CALM      29.95R
LUKE AFB       MOSUNNY   73  42  32 NE3       29.93R
DEER VALLEY    MOSUNNY   71  42  35 CALM      29.95R
SCOTTSDALE     MOSUNNY   73  43  33 CALM      29.96R
MESA-FALCON    MOSUNNY   70  41  35 E9        29.95R
MESA-GATEWAY   MOSUNNY   64  46  52 SE6       29.97R
CHANDLER       MOSUNNY   72  46  40 VRB6      29.95R
$$

AZZ027-028-261500-
SOUTHWEST MARICOPA COUNTY AND PINAL COUNTY

CITY           SKY/WX    TMP DP  RH WIND       PRES   REMARKS
CASA GRANDE    SUNNY     68  41  37 CALM      29.95R
GILA BEND      FAIR      69  42  37 SE2       29.92R
$$

AZZ503-504-507>509-261500-
SOUTHEAST ARIZONA

CITY           SKY/WX    TMP DP  RH WIND       PRES   REMARKS
TUCSON         SUNNY     66  35  31 SE6       30.03R
DAVIS-MONTHAN  SUNNY     67  31  26 S6        30.02R
RYAN FIELD       N/A     63  37  39 CALM      30.03R
NOGALES        SUNNY     57  31  37 S3        30.08R
SIERRA VISTA   SUNNY     61  28  28 N5        30.12R
DOUGLAS        SUNNY     58  26  29 SE3       30.10R
SAFFORD        SUNNY     62  33  33 CALM      30.04R
$$

AZZ020-021-025-026-031-261500-
SOUTHWEST ARIZONA

CITY           SKY/WX    TMP DP  RH WIND       PRES   REMARKS
YUMA           MOSUNNY   70  43  37 NE6       29.88R
$$

CAZ031-033-041-043-047-048-061-261500-
SOUTHERN CALIFORNIA

CITY           SKY/WX    TMP DP  RH WIND       PRES   REMARKS
DOWNTOWN L.A.  CLOUDY    62  54  74 W3        29.99R
L.A. AIRPORT   CLOUDY    59  55  87 N5        30.00S
SAN DIEGO      CLOUDY    63  55  75 NW3       30.00R
BURBANK        CLOUDY    60  53  77 S3        29.99R
ONTARIO        CLOUDY    58  55  90 SW7       30.00R FOG
RIVERSIDE      CLOUDY    59  55  87 CALM      30.01R FOG
PALM SPRINGS   SUNNY     67  53  61 CALM      29.92R
EL CENTRO NAS  MOSUNNY   66  55  67 S3        29.89R
IMPERIAL       SUNNY     66  52  60 SE5       29.87R
BLYTHE         SUNNY     68  43  40 CALM      29.89S
NEEDLES        SUNNY     77  32  19 SE3       29.89R
$$

NVZ020-UTZ003-261500-
SOUTHERN NEVADA-UTAH

CITY           SKY/WX    TMP DP  RH WIND       PRES   REMARKS
LAS VEGAS      MOSUNNY   73  41  31 S7        29.89R
SALT LAKE CITY PTSUNNY   59  48  67 S8        30.02R
$$

NMZ009-TXZ055-261500-
NEW MEXICO-WEST TEXAS

CITY           SKY/WX    TMP DP  RH WIND       PRES   REMARKS
ALBUQUERQUE    MOSUNNY   54  45  71 E5        30.15S
EL PASO        MOSUNNY   66  40  38 CALM      30.08R
$$


........................KEY........................
SKY/WX - SKY CONDITION/WEATHER
TMP    - TEMPERATURE IN FAHRENHEIT
DP     - DEW POINT IN FAHRENHEIT
RH     - RELATIVE HUMIDITY IN PERCENT
WIND   - DIRECTION AND SPEED IN MILES PER HOUR (MPH)
VRB    - VARIABLE WIND DIRECTION
PRES   - MEAN SEA LEVEL PRESSURE IN INCHES OF MERCURY
         F - FALLING PRESSURE   R - RISING PRESSURE
         S - STEADY PRESSURE
VSB    - VISIBILITY IN MILES
HX     - HEAT INDEX IN FAHRENHEIT
WCI    - WIND CHILL INDEX IN FAHRENHEIT
TC     - TEMPERATURE IN CELSIUS WHICH IS ALSO KNOWN AS
         TEMPERATURE IN CENTIGRADE
AFB    - AIR FORCE BASE
         LUKE AFB IS LUKE AIR FORCE BASE
         DAVIS-MONTHAN IS DAVIS-MONTHAN AIR FORCE BASE
NAS    - NAVAL AIR STATION
         EL CENTRO NAS IS EL CENTRO NAVAL AIR STATION
N/A    - NOT AVAILABLE



USA.gov is the U.S. government's official web portal to all federal, state and local government web resources and services.